Regional Weather Roundup
Issued by NWS

Home | Current Version | Previous Version | Graphics & Text | Print | Product List | Glossary Off
Versions: 1 2 3 4 5 6 7 8 9 10 11 12 13 14 15 16 17 18 19 20 21 22 23 24 25 26 27 28 29 30 31 32 33 34 35 36 37 38 39 40 41 42 43 44 45 46 47 48 49 50

000
ASUS43 KTOP 272208
RWRKS

WEATHER ROUNDUP FOR KANSAS
NATIONAL WEATHER SERVICE GOODLAND KS
500 PM CDT WED MAY 27 2015

NOTE:  "FAIR" INDICATES FEW OR NO CLOUDS BELOW 12,000 FEET WITH NO
SIGNIFICANT WEATHER AND/OR OBSTRUCTIONS TO VISIBILITY.

KSZ001>006-013>018-027>032-041>047-272300-
NORTHWEST KANSAS

CITY           SKY/WX    TMP DP  RH WIND       PRES   REMARKS
GOODLAND       PTSUNNY   69  60  73 SE20G32   29.99S
HAYS           PTSUNNY   73  61  64 SE17      30.02F
HILL CITY      CLOUDY    71  58  63 SE13      30.04S
RUSSELL        PTSUNNY   76  61  59 SE20      30.02F
$$

KSZ061>065-074>080-084>089-272300-
SOUTHWEST KANSAS

CITY           SKY/WX    TMP DP  RH WIND       PRES   REMARKS
DODGE CITY     MOSUNNY   79  61  53 SE24G30   29.99F
ELKHART          N/A     84  53  34 SW8         N/A
GARDEN CITY    MOSUNNY   80  58  46 SE25G37   29.96F
GREAT BEND     PTSUNNY   75  63  64 SE12      30.02F
LIBERAL        MOSUNNY   82  61  47 SE20      29.97S
PRATT          MOSUNNY   81  59  47 SE13      30.03F
$$

KSZ066>073-081>083-090>101-272300-
SOUTHEAST KANSAS

CITY           SKY/WX    TMP DP  RH WIND       PRES   REMARKS
CHANUTE        SUNNY     83  65  54 S6        30.06F
COFFEYVILLE    SUNNY     83  65  54 SE5       30.04F
HUTCHINSON     MOSUNNY   82  62  50 SE13      30.02F
MEDICINE LODGE   N/A     82  63  52 SE15G21   29.99F
NEWTON         MOSUNNY   81  61  50 SE9       30.06F
PARSONS        MOSUNNY   84  67  56 VRB3      30.06F
WICHITA INTL   MOSUNNY   83  62  49 SE13      30.02F
WICHITA JABRA  MOSUNNY   81  63  54 SE12      30.03F
WICHITA MCCONL MOSUNNY   82  63  52 E13       30.02F
WINFIELD       SUNNY     82  66  58 SE10      30.02F
$$

KSZ007>012-019>026-033>040-048>060-102>105-272300-
NORTHEAST KANSAS

CITY           SKY/WX    TMP DP  RH WIND       PRES   REMARKS
CONCORDIA      MOSUNNY   77  56  48 SE10      30.03F
EMPORIA        SUNNY     80  60  50 SE10      30.06F
LAWRENCE       MOSUNNY   81  53  37 S7        30.07F
MANHATTAN      MOSUNNY   82  58  43 S9        30.05F
MARYSVILLE     PTSUNNY   79  54  41 S9        30.06F
OLATHE IND     MOSUNNY   81  55  40 E7        30.09F
OLATHE EXE     MOSUNNY   79  54  41 CALM      30.08F
SALINA         PTSUNNY   82  60  47 SE15      30.03F
TOPEKA BILLARD PTSUNNY   81  54  39 S9        30.07F
TOPEKA FORBES  PTSUNNY   82  55  39 SE7       30.07F
$$


USA.gov is the U.S. government's official web portal to all federal, state and local government web resources and services.